User: anonymous
Location: Irma
(52.9170°N, 111.2330°W)
Time: 13:53:46
(UTC-06:00)
Language:

Meteor 1-24 Rocket - Orbit

View from above orbital plane
View from above orbital plane
View from above satellite
View from above satellite

Ground track
Ground track

The orbit data is extracted from the following two-line orbital elements,

1 08800U 76032B   14273.48999366  .00000153  00000-0  75495-4 0  1305
2 08800 081.2490 101.0359 0096498 109.7435 310.3692 14.09973535978572
Epoch (UTC): 30 September 2014 11:45:35
Eccentricity: 0.0096498
inclination: 81.2490°
perigee height: 789 km
apogee height: 929 km
right ascension of ascending node: 101.0359°
argument of perigee: 109.7435°
revolutions per day: 14.09973535
mean anomaly at epoch: 310.3692°
orbit number at epoch: 97857

The dashed part of the orbit path shows where the satellite is in the earth's shadow,  

DLR